[[{"header":{"parameterUnit":"m.s-1","parameterCategory":1,"la1":30.2991,"la2":30.254,"lo1":-89.0895,"lo2":-89.0444,"dy":0.0017,"dx":0.0017,"nx":28,"ny":28,"refTime":"2024-10-19T21:00:00:Z","depth":0,"parameterNumber":2,"parameterNumberName":"U-component_of_WINDS"},"data":[0,0,0,0,0,0,0,0,0,0,0,0,0,0,0,0,0,0,0,0,0,0,0,0,0,0,0,0,0,0,0,0,0,0,0,0,0,0,0,0,0,0,0,0,0,0,0,0,0,0,0,0,0,0,0,0,0,0,-3.1483,-3.1482,0,-3.138,-3.1379,-3.1378,-3.1251,-3.1249,-3.1247,-3.1246,-3.1142,-3.1141,-3.114,0,0,0,0,0,0,0,0,0,0,0,0,0,-3.1573,-3.1572,-3.1483,-3.1482,-3.1481,-3.138,-3.1379,-3.1378,-3.1252,-3.1249,-3.1247,-3.1245,-3.1142,-3.1141,-3.114,0,0,0,0,0,0,0,0,0,0,0,0,0,-3.1509,-3.1572,-3.1483,-3.1406,-3.1398,-3.1381,-3.1379,-3.1377,-3.1252,-3.1249,-3.1246,-3.1244,-3.1142,-3.1141,-3.114,-3.1191,0,0,-3.1136,-3.1135,0,0,0,0,0,0,0,0,-3.1512,-3.1505,-3.1418,-3.1411,-3.1402,-3.1325,-3.1372,-3.1315,-3.1253,-3.1308,-3.1245,-3.1242,-3.1205,-3.1199,-3.1186,-3.1186,-3.1182,-3.1135,-3.1135,-3.1134,-3.1134,0,0,0,0,0,0,0,-3.1517,-3.1509,-3.1442,-3.1417,-3.1407,-3.1377,-3.1364,-3.1361,-3.1275,-3.1303,-3.1293,-3.1283,-3.12,-3.1188,-3.1183,-3.118,-3.1135,-3.1134,-3.1133,-3.1133,-3.1219,-3.1222,0,0,0,0,0,0,-3.1533,-3.1514,-3.1446,-3.1439,-3.1451,-3.1378,-3.1364,-3.1353,-3.1274,-3.1259,-3.1285,-3.1277,-3.1191,-3.1184,-3.1178,-3.1235,-3.1134,-3.1133,-3.1132,-3.1216,-3.122,-3.1223,0,0,0,0,0,0,-3.1535,-3.1528,-3.145,-3.1474,-3.1462,-3.1379,-3.1369,-3.1353,-3.134,-3.1261,-3.1245,-3.1288,-3.1189,-3.118,-3.1189,-3.1229,-3.1132,-3.1131,-3.1213,-3.1217,-3.1222,-3.1347,0,0,0,0,0,0,-3.1538,-3.153,-3.1548,-3.1475,-3.1461,-3.1462,-3.1371,-3.1353,-3.1338,-3.1326,-3.1259,-3.1246,-3.1186,-3.1192,-3.1188,-3.1226,-3.113,-3.1209,-3.1215,-3.122,-3.1339,-3.1356,-3.137,0,0,0,0,0,-3.1542,-3.1587,-3.1549,-3.1542,-3.1482,-3.1465,-3.1456,-3.1386,-3.1341,-3.1359,-3.1309,-3.1248,-3.1226,-3.1194,-3.1188,-3.1226,-3.1206,-3.1213,-3.122,-3.1333,-3.1353,-3.137,0,0,0,0,0,0,-3.1667,-3.1576,-3.1533,-3.1556,-3.1519,-3.1443,-3.1464,-3.1409,-3.1384,-3.1375,-3.1289,-3.1275,-3.1295,-3.1261,-3.1227,-3.1273,-3.1207,-3.1213,-3.1294,-3.1313,-3.1328,-3.1336,-3.1129,0,0,0,0,0,-3.1697,-3.169,-3.1611,-3.1639,-3.1623,-3.1547,-3.1537,-3.1486,-3.1444,-3.1428,-3.1378,-3.1341,-3.1325,-3.1317,-3.1298,-3.1334,-3.1318,-3.1357,-3.1373,-3.1385,-3.1392,-3.1411,-3.1428,-3.1247,-3.1246,-3.1246,0,0,-3.1759,-3.1708,-3.1709,-3.1663,-3.1628,-3.1624,-3.1534,-3.1533,-3.153,-3.1428,-3.1433,-3.1396,-3.1348,-3.1372,-3.1379,-3.1344,-3.1439,-3.1394,-3.1405,-3.1405,-3.142,-3.1437,-3.1452,-3.1251,-3.125,-3.125,0,0,-3.187,-3.1831,-3.185,-3.1818,-3.1766,-3.1716,-3.1721,-3.1653,-3.1625,-3.1629,-3.1553,-3.1548,-3.1522,-3.1492,-3.1474,-3.1576,-3.1519,-3.1572,-3.1652,-3.1671,-3.1686,-3.1698,-3.1736,-3.1751,-3.1579,-3.1579,-3.1579,0,-3.1954,-3.1944,-3.1867,-3.1871,-3.1854,-3.1762,-3.1782,-3.1754,-3.1699,-3.169,-3.1651,-3.1619,-3.158,-3.1596,-3.1621,-3.1608,-3.1613,-3.158,-3.169,-3.1701,-3.1711,-3.1747,-3.1761,-3.1586,-3.1585,-3.1584,-3.1584,0,-3.205,-3.2045,-3.2067,-3.2017,-3.2002,-3.2014,-3.1941,-3.1934,-3.1885,-3.184,-3.1846,-3.1797,-3.1767,-3.1767,-3.1719,-3.1777,-3.1757,-3.1705,-3.1637,-3.1737,-3.1769,-3.1782,-3.1596,-3.1593,-3.1591,-3.159,0,0,-3.2237,-3.2145,-3.2155,-3.2132,-3.2069,-3.2064,-3.2073,-3.2044,-3.2041,-3.2007,-3.2013,-3.1995,-3.1947,-3.1926,-3.1874,-3.189,-3.1977,-3.1836,-3.1834,-3.1866,-3.204,-3.208,-3.2097,-3.1939,-3.1941,-3.1943,-3.2044,0,-3.2338,-3.2347,-3.2279,-3.2307,-3.2302,-3.2215,-3.2223,-3.2186,-3.2144,-3.2134,-3.2087,-3.2076,-3.2013,-3.2,-3.2012,-3.1964,-3.2011,-3.1955,-3.1945,-3.1946,-3.1961,-3.2113,-3.2156,-3.2254,-3.2056,-3.2058,-3.206,0,-3.2457,-3.243,-3.2458,-3.2395,-3.239,-3.2399,-3.2368,-3.2359,-3.2316,-3.2284,-3.2262,-3.2202,-3.2207,-3.2142,-3.215,-3.2114,-3.2105,-3.2081,-3.2083,-3.2081,-3.201,-3.2117,-3.2284,-3.23,-3.2078,-3.2077,-3.2075,0,-3.2593,-3.2563,-3.2576,-3.2559,-3.2486,-3.2494,-3.2464,-3.2418,-3.2406,-3.2379,-3.237,-3.2345,-3.2331,-3.2313,-3.2249,-3.2207,-3.2265,-3.2193,-3.224,-3.2242,-3.2257,-3.2257,-3.2427,-3.2249,-3.2249,-3.2249,-3.2249,0,-3.2713,-3.2734,-3.2636,-3.2645,-3.2666,-3.2588,-3.2612,-3.2573,-3.2533,-3.2534,-3.2456,-3.2459,-3.2372,-3.2365,-3.2315,-3.233,-3.2324,-3.23,-3.2287,-3.2308,-3.2311,-3.2302,-3.2294,-3.2253,-3.2252,-3.2251,-3.225,0,-3.2869,-3.2804,-3.2813,-3.2743,-3.2726,-3.2746,-3.2686,-3.2692,-3.2645,-3.2646,-3.2642,-3.2569,-3.2557,-3.2491,-3.2463,-3.2429,-3.2463,-3.2435,-3.2478,-3.2469,-3.252,-3.2517,-3.2691,-3.2711,-3.252,-3.2522,-3.2524,0,-3.2951,-3.2965,-3.2897,-3.2892,-3.2865,-3.2857,-3.2845,-3.2769,-3.2759,-3.2712,-3.2724,-3.2706,-3.2687,-3.2672,-3.2617,-3.2596,-3.2568,-3.2631,-3.2565,-3.2586,-3.2571,-3.2572,-3.2574,-3.2645,-3.2648,-3.265,-3.2651,0,-3.3104,-3.3071,-3.3055,-3.303,-3.3017,-3.2992,-3.2963,-3.2964,-3.288,-3.2873,-3.286,-3.2845,-3.2818,-3.2801,-3.2771,-3.2741,-3.2684,-3.2673,-3.2683,-3.2705,-3.273,-3.2719,-3.2518,-3.2669,-3.2667,-3.2666,-3.2665,-3.2664,-3.3226,-3.3235,-3.319,-3.3175,-3.3146,-3.3121,-3.3123,-3.3077,-3.3065,-3.3036,-3.2992,-3.2986,-3.2944,-3.2897,-3.2872,-3.2867,-3.2834,-3.2848,-3.2851,-3.2856,-3.2868,-3.273,-3.2861,-3.286,-3.286,-3.2859,-3.2859,0,-3.3377,-3.3343,-3.3331,-3.3293,-3.3283,-3.3228,-3.3194,-3.3189,-3.3184,-3.315,-3.3133,-3.3119,-3.3103,-3.3048,-3.3026,-3.3033,-3.3006,-3.303,-3.303,-3.3024,-3.2898,-3.2893,-3.3052,-3.3052,-3.3052,-3.3052,-3.3052,-3.3052,-3.3454,-3.3467,-3.343,-3.3429,-3.3395,-3.3388,-3.3373,-3.3351,-3.3323,-3.3311,-3.3297,-3.3261,-3.3218,-3.3194,-3.3177,-3.3161,-3.3158,-3.3191,-3.3167,-3.3051,-3.3033,-3.3015,-3.3009,-3.3191,-3.3191,-3.3293,-3.3294,-3.3295]},{"header":{"parameterUnit":"m.s-1","parameterCategory":1,"la1":30.2991,"la2":30.254,"lo1":-89.0895,"lo2":-89.0444,"dy":0.0017,"dx":0.0017,"nx":28,"ny":28,"refTime":"2024-10-19T21:00:00:Z","depth":0,"parameterNumber":3,"parameterNumberName":"V-component_of_WINDS"},"data":[0,0,0,0,0,0,0,0,0,0,0,0,0,0,0,0,0,0,0,0,0,0,0,0,0,0,0,0,0,0,0,0,0,0,0,0,0,0,0,0,0,0,0,0,0,0,0,0,0,0,0,0,0,0,0,0,0,0,-0.5516,-0.5517,0,-0.5551,-0.5551,-0.5551,-0.5533,-0.5532,-0.5531,-0.553,-0.5571,-0.5573,-0.5574,0,0,0,0,0,0,0,0,0,0,0,0,0,-0.544,-0.5441,-0.5516,-0.5517,-0.5517,-0.5551,-0.5551,-0.5551,-0.5533,-0.5532,-0.5531,-0.553,-0.557,-0.5572,-0.5575,0,0,0,0,0,0,0,0,0,0,0,0,0,-0.5474,-0.5442,-0.5516,-0.5512,-0.5512,-0.555,-0.5551,-0.5552,-0.5533,-0.5532,-0.553,-0.5529,-0.5569,-0.5572,-0.5575,-0.5622,0,0,-0.5584,-0.5585,0,0,0,0,0,0,0,0,-0.5472,-0.5476,-0.5512,-0.5512,-0.5512,-0.5536,-0.5539,-0.5575,-0.5534,-0.5525,-0.553,-0.5528,-0.5561,-0.5564,-0.5574,-0.5623,-0.5625,-0.5584,-0.5586,-0.5587,-0.5588,0,0,0,0,0,0,0,-0.5469,-0.5475,-0.553,-0.5513,-0.5513,-0.551,-0.5513,-0.5546,-0.5551,-0.5526,-0.5525,-0.5529,-0.556,-0.5571,-0.5575,-0.5626,-0.5584,-0.5587,-0.5589,-0.559,-0.5717,-0.5719,0,0,0,0,0,0,-0.5467,-0.5473,-0.5529,-0.5531,-0.5488,-0.5512,-0.5516,-0.553,-0.555,-0.5552,-0.553,-0.5528,-0.5567,-0.5571,-0.5576,-0.5634,-0.5587,-0.559,-0.5592,-0.5715,-0.5717,-0.5719,0,0,0,0,0,0,-0.5465,-0.5472,-0.5528,-0.5502,-0.5509,-0.5515,-0.5531,-0.5531,-0.5542,-0.5553,-0.5554,-0.554,-0.5566,-0.5572,-0.561,-0.5635,-0.5591,-0.5594,-0.5714,-0.5716,-0.5718,-0.5748,0,0,0,0,0,0,-0.5463,-0.5471,-0.5488,-0.5502,-0.551,-0.556,-0.5532,-0.5533,-0.5546,-0.5544,-0.5563,-0.5564,-0.5565,-0.5606,-0.5613,-0.5638,-0.5596,-0.5711,-0.5715,-0.5717,-0.5745,-0.5751,-0.5757,0,0,0,0,0,-0.546,-0.5496,-0.5489,-0.5496,-0.5531,-0.5561,-0.5566,-0.5565,-0.5548,-0.5566,-0.5573,-0.5564,-0.563,-0.561,-0.5618,-0.5644,-0.571,-0.5714,-0.5717,-0.5743,-0.575,-0.5757,0,0,0,0,0,0,-0.5487,-0.5498,-0.549,-0.5531,-0.5545,-0.5558,-0.5581,-0.5573,-0.5593,-0.559,-0.5589,-0.5593,-0.5634,-0.5642,-0.562,-0.5691,-0.5668,-0.5673,-0.5684,-0.5692,-0.5697,-0.5696,-0.5599,0,0,0,0,0,-0.5497,-0.5519,-0.5528,-0.5564,-0.5571,-0.5574,-0.5588,-0.5585,-0.5601,-0.5607,-0.5617,-0.5634,-0.5658,-0.5675,-0.5698,-0.5745,-0.5751,-0.5767,-0.5773,-0.5777,-0.5783,-0.5811,-0.5819,-0.5731,-0.5731,-0.5731,0,0,-0.5519,-0.5528,-0.5542,-0.5569,-0.558,-0.5605,-0.558,-0.5607,-0.5626,-0.5612,-0.5649,-0.5656,-0.5675,-0.5719,-0.5738,-0.5727,-0.5808,-0.5782,-0.5786,-0.5789,-0.5815,-0.5824,-0.5831,-0.5734,-0.5733,-0.5733,0,0,-0.5573,-0.558,-0.5611,-0.5622,-0.5638,-0.564,-0.5647,-0.5661,-0.5665,-0.5702,-0.5692,-0.5715,-0.5757,-0.5771,-0.5784,-0.5842,-0.5835,-0.585,-0.5881,-0.5908,-0.5915,-0.5921,-0.5945,-0.5953,-0.5855,-0.5855,-0.5855,0,-0.5599,-0.5635,-0.5629,-0.5657,-0.567,-0.5655,-0.5688,-0.5699,-0.5723,-0.5733,-0.5719,-0.5772,-0.5783,-0.5831,-0.5845,-0.5855,-0.5865,-0.5849,-0.5914,-0.592,-0.5926,-0.5948,-0.5957,-0.5856,-0.5856,-0.5856,-0.5856,0,-0.5667,-0.5692,-0.5716,-0.5737,-0.5752,-0.5783,-0.5783,-0.5799,-0.5795,-0.5799,-0.5837,-0.585,-0.5876,-0.5887,-0.5883,-0.5934,-0.5927,-0.5913,-0.5891,-0.5936,-0.5957,-0.5966,-0.5859,-0.5859,-0.5858,-0.5857,0,0,-0.5741,-0.5758,-0.5767,-0.5777,-0.5792,-0.5813,-0.5842,-0.5866,-0.5882,-0.5897,-0.5925,-0.596,-0.5947,-0.5962,-0.596,-0.5983,-0.6031,-0.5967,-0.5967,-0.5981,-0.6091,-0.6103,-0.6113,-0.6025,-0.6026,-0.6027,-0.609,0,-0.5798,-0.5849,-0.5845,-0.5894,-0.5918,-0.5904,-0.5931,-0.5944,-0.5948,-0.5971,-0.5976,-0.6002,-0.5982,-0.5991,-0.6013,-0.602,-0.6054,-0.6015,-0.6053,-0.6054,-0.6052,-0.6123,-0.6136,-0.6195,-0.6098,-0.6099,-0.61,0,-0.5872,-0.5889,-0.5941,-0.5953,-0.5963,-0.5987,-0.6009,-0.6029,-0.6045,-0.6046,-0.6062,-0.6056,-0.6088,-0.6062,-0.6108,-0.6082,-0.6097,-0.6103,-0.6105,-0.6111,-0.6083,-0.6135,-0.6213,-0.6224,-0.6113,-0.6112,-0.6111,0,-0.5924,-0.596,-0.5996,-0.6005,-0.6019,-0.6037,-0.6044,-0.6058,-0.6072,-0.6092,-0.6102,-0.6125,-0.6139,-0.6158,-0.6159,-0.6139,-0.6206,-0.6179,-0.6211,-0.6211,-0.6229,-0.6228,-0.6314,-0.6233,-0.6232,-0.6232,-0.6232,0,-0.599,-0.6023,-0.602,-0.6042,-0.6079,-0.6073,-0.6111,-0.6116,-0.6128,-0.6153,-0.6141,-0.6165,-0.6163,-0.6188,-0.6189,-0.6228,-0.6234,-0.6238,-0.6239,-0.6241,-0.6241,-0.6253,-0.6251,-0.6235,-0.6234,-0.6234,-0.6233,0,-0.6057,-0.6055,-0.6094,-0.6104,-0.6107,-0.6134,-0.6144,-0.6166,-0.6168,-0.6199,-0.6207,-0.6211,-0.6239,-0.6241,-0.6274,-0.6275,-0.6323,-0.6318,-0.6318,-0.6318,-0.6351,-0.6349,-0.6451,-0.6465,-0.6371,-0.6372,-0.6372,0,-0.6101,-0.6125,-0.6138,-0.6152,-0.616,-0.6184,-0.6199,-0.6194,-0.621,-0.6229,-0.625,-0.6276,-0.6298,-0.6344,-0.6352,-0.6377,-0.6374,-0.6408,-0.6378,-0.6381,-0.6379,-0.6379,-0.6382,-0.6415,-0.6416,-0.6417,-0.6417,0,-0.618,-0.6178,-0.6198,-0.6219,-0.6236,-0.6253,-0.6268,-0.6281,-0.6278,-0.6297,-0.6325,-0.6341,-0.6374,-0.6402,-0.6427,-0.6436,-0.6428,-0.6426,-0.6435,-0.644,-0.6441,-0.6444,-0.6338,-0.6425,-0.6424,-0.6424,-0.6423,-0.6423,-0.6238,-0.626,-0.6272,-0.6296,-0.6306,-0.6321,-0.6343,-0.6347,-0.6369,-0.6395,-0.639,-0.6422,-0.6437,-0.6469,-0.6481,-0.6507,-0.6496,-0.6508,-0.6512,-0.6516,-0.6521,-0.6433,-0.6511,-0.6511,-0.651,-0.651,-0.651,0,-0.632,-0.6326,-0.6348,-0.6369,-0.6388,-0.6374,-0.6391,-0.6408,-0.6436,-0.645,-0.647,-0.6503,-0.653,-0.6538,-0.6565,-0.6584,-0.6581,-0.6592,-0.6592,-0.6595,-0.6528,-0.6519,-0.6594,-0.6594,-0.6594,-0.6594,-0.6594,-0.6594,-0.6364,-0.6402,-0.6401,-0.6443,-0.645,-0.648,-0.649,-0.6504,-0.6515,-0.6552,-0.6573,-0.6578,-0.659,-0.6617,-0.6642,-0.6644,-0.6656,-0.6669,-0.667,-0.6608,-0.66,-0.6592,-0.6583,-0.667,-0.667,-0.6735,-0.6735,-0.6736]}]]